Hourly Data Report for July 25, 2021

WIARTON A
ONTARIO
Current Station Operator: NAVCAN

44°44'39.000" N
81°06'31.000" W
221.90 m
6119499
71633
YVV

Download Data

Hourly Data (July 2021)
Hourly Data Report for July 25, 2021
TIME
LST
Temp Definition
°C
Dew Point Definition
°C
Rel Hum Definition
%
Precip. Amount Definition
mm

Wind Dir Definition
10's deg

Wind Spd Definition
km/h
Visibility Definition
km
Stn Press Definition
kPa
Hmdx Definition


Wind Chill Definition


Weather Definition


00:00 18.3 18.2 99   25 11 9.7 98.20     Fog
01:00 18.4 18.2 99   24 12 9.7 98.25     Fog
02:00 18.9 18.6 98   23 11 9.7 98.25     Fog
03:00 19.6 19.4 99   25 13 9.7 98.24     Fog
04:00 19.4 19.0 98   27 8 9.7 98.24     Fog
05:00 19.2 18.8 98   27 11 9.7 98.27     Fog
06:00 19.4 18.8 96   28 9 9.7 98.32     Fog
07:00 19.3 18.6 95   27 7 9.7 98.36     Fog
08:00 20.0 18.9 93   25 8 12.9 98.41 27   LegendNANA
09:00 21.7 19.8 89   23 13 16.1 98.42 29   LegendNANA
10:00 23.1 19.7 81   24 11 16.1 98.42 30   Mostly Cloudy
11:00 24.1 18.9 73   22 16 16.1 98.43 31   LegendNANA
12:00 23.7 18.7 73   26 16 16.1 98.41 30   LegendNANA
13:00 23.7 17.6 68   26 16 16.1 98.44 29   Clear
14:00 23.9 17.0 65   27 17 16.1 98.46 29   LegendNANA
15:00 23.8 16.6 64   26 13 12.9 98.47 29   LegendNANA
16:00 23.4 16.7 65   27 11 9.7 98.49 28   Smoke
17:00 23.2 16.4 65   26 10 8.1 98.48 28   Smoke
18:00 23.2 15.8 62   27 9 6.4 98.46 28   Smoke
19:00 22.3 15.7 66   23 8 4.8 98.49 27   Smoke
20:00 20.3 16.4 78   21 9 4.8 98.49 25   Smoke
21:00 18.3 15.9 86   22 7 6.4 98.55     Smoke
22:00 18.3 15.4 83   22 6 6.4 98.58     Smoke
23:00 16.8 14.7 87   20 7 9.7 98.63     Smoke

Notes on Data Quality.

Legend

  • E = Estimated
  • M = Missing
  • NA = Not Available*
  • [empty] = Indicates an unobserved value
Date modified: